STARLINK-2545 (48289 NORAD) Tracking and Keplerian Element Data

This shows tracking and keplerian element data for the satellite.

Feedback or suggestion? Click here.




ElementValue
Catalog48289
NameSTARLINK-2545
Epoch Orbit1571
Epoch Day214.91667824
Epoch Year2021
RAAN62.4079
Inclination53.0545
Eccentricity0.0001612
Argument of Perigee77.8608
Mean Anonmoly166.0273
Mean Motion15.06394349
Decay Rate7.317E-05
L11 48289U 21036P 21214.91667824 .00007317 00000-0 50970-3 0 9998
L22 48289 53.0545 62.4079 0001612 77.8608 166.0273 15.06394349 15712

Live tracking and technical data element details for STARLINK-2545 (NORAD 48289). STARLINK-2545 can be tracked NOW for your location showing map with azimuth and elevation plus other details from your city location.

Track the satellite on the map from your city or location and see movement details for azimuth, elevation, latitude, longitude, range, height, and movement on the map or in text.







IsCatalogInMostPopularTable: catalog: 48289, numindb: 30
Update: records affected: 1



GetName: 48289 STARLINK-2545

Hit Count: updated at: Tue, 03 Aug 2021 20:06:22 GMT